CAPE
3 16 4 0 14 11 5 0 0 0 0 0 0 0 0 0 0 0 0 0 0 0 0 0 0 0 0 0 0 0 0 0 0 0 0 1 14 98 94 74 13 0 0
0 8 29 15 7 4 4 18 4 7 0 0 0 0 0 0 0 0 0 0 0 0 0 0 0 0 0 0 0 0 0 0 0 0 0 0 1 31 115 86 32 0 0
18 14 25 39 42 36 28 56 36 20 16 14 7 5 0 0 0 0 0 0 0 0 0 0 0 0 0 0 0 0 0 0 0 0 0 0 0 2 111 26 49 0 0
36 29 24 61 78 52 37 39 14 34 32 33 34 22 11 3 0 0 0 0 0 0 0 0 0 0 0 0 0 0 0 0 0 0 0 0 0 0 7 152 67 0 0
55 47 58 56 64 79 51 45 51 34 28 17 27 8 13 13 10 8 2 0 0 0 0 0 0 0 0 0 0 0 0 0 0 0 0 0 0 0 21 130 98 6 0
73 56 38 22 73 38 74 45 55 30 45 35 27 18 18 7 7 10 3 6 1 0 0 0 0 0 0 0 0 0 0 0 0 0 0 0 0 0 0 15 185 35 0
31 106 12 17 22 37 36 44 22 28 29 39 26 17 2 0 0 0 2 0 1 0 0 0 0 0 0 0 0 0 0 0 0 0 0 1 0 0 0 0 93 80 5
49 66 26 43 17 23 50 28 20 36 22 28 29 30 16 0 0 0 0 0 0 2 0 0 0 0 0 0 0 0 0 0 0 0 0 0 2 0 0 0 1 166 22
0 0 0 0 0 0 0 0 0 6 27 40 46 35 27 14 4 7 5 0 0 0 0 7 0 0 0 0 0 0 0 0 0 0 0 0 3 4 0 0 0 8 122
0 0 0 0 0 0 0 0 0 0 7 37 52 38 58 32 20 5 9 8 9 3 5 10 7 0 0 0 0 0 0 0 0 0 0 0 3 6 0 0 0 0 206
0 0 0 0 0 0 0 0 0 0 5 5 15 32 29 40 41 42 11 1 17 19 15 12 4 0 0 0 0 0 0 0 0 0 0 0 0 4 0 0 0 2 92
0 0 0 0 0 0 0 0 0 0 0 0 2 5 37 64 39 52 30 1 3 2 3 2 0 0 0 0 0 0 0 0 0 0 0 0 0 0 0 6 2 0 12
0 0 0 0 0 0 0 1 1 2 3 0 0 0 2 41 57 30 40 2 8 0 4 13 1 0 0 0 0 0 0 0 0 0 0 0 0 0 0 4 0 0 0
3 4 0 0 0 0 0 0 3 3 3 8 0 0 0 4 12 26 9 19 5 11 0 0 0 0 0 0 0 0 0 0 0 0 0 0 0 0 0 0 0 0 0
7 6 4 7 0 6 1 0 4 10 9 0 1 0 0 0 18 21 40 19 7 3 2 0 4 1 0 0 0 0 0 0 0 0 0 0 0 0 0 0 0 0 0
17 13 6 1 0 0 0 0 1 1 4 5 5 2 0 0 1 46 22 17 14 6 1 0 8 1 1 0 0 0 0 0 0 0 0 0 0 0 0 0 0 0 0
3 6 6 1 6 2 1 0 1 4 4 0 1 2 6 0 0 3 28 19 0 0 3 0 0 0 0 0 0 6 1 0 0 0 0 0 0 0 0 0 0 0 0
3 13 4 3 4 6 5 2 0 0 0 0 0 4 1 0 0 1 7 4 1 1 0 0 0 0 0 3 7 12 7 0 0 0 0 0 0 0 0 0 0 0 0
7 4 0 0 0 0 4 8 5 0 0 1 0 0 0 1 0 1 2 6 3 0 0 0 0 0 0 15 19 22 30 15 17 0 0 0 0 0 0 0 0 0 0
6 2 2 2 2 0 3 6 4 2 2 0 1 0 0 2 1 2 3 0 11 1 0 3 0 0 0 5 15 7 18 13 16 0 0 0 0 0 0 0 0 0 0
0 0 0 6 5 8 5 2 0 0 0 0 0 1 0 0 3 8 7 0 8 12 0 1 0 0 5 7 1 3 14 17 12 0 0 0 0 0 0 0 0 0 0
0 0 0 16 0 5 0 0 2 2 1 0 0 0 1 4 1 0 0 0 0 6 2 1 0 0 0 0 23 12 13 16 9 26 2 0 0 0 0 0 0 0 0
0 0 3 7 0 2 0 0 2 1 0 0 0 0 0 7 0 0 0 0 0 0 0 0 0 2 1 0 15 15 17 31 12 10 6 6 4 0 1 0 0 0 0
0 0 8 2 2 0 0 0 1 1 1 0 0 0 0 3 0 0 0 0 0 0 0 0 2 0 0 0 22 8 14 11 19 36 30 1 15 8 5 0 0 0 0
2 0 12 2 0 0 0 0 0 1 0 0 0 1 0 3 1 0 1 0 0 0 0 0 0 0 0 0 19 12 19 22 8 8 21 4 13 4 0 0 0 0 0
1 1 4 1 1 0 0 0 0 0 1 0 0 0 7 7 0 0 0 1 3 0 17 1 0 0 0 0 0 8 10 18 1 6 15 21 0 0 0 0 0 0 0
CIN
-4 -2 -4 0 -6 -13 -2 0 0 0 0 0 0 0 0 0 0 0 0 0 0 0 0 0 0 0 0 0 0 0 0 0 0 0 0 0 -39 -9 -5 -5 -49 0 0
0 -5 -3 -4 -3 -5 -3 -6 -2 -5 -4 0 0 0 0 0 0 0 0 0 0 0 0 0 0 0 0 0 0 0 0 0 0 0 0 0 -33 -35 0 -5 -43 0 0
-11 -14 -12 -15 -9 -10 -14 -5 -4 -5 -8 -6 -6 -5 0 0 0 0 0 0 0 0 0 0 0 0 0 0 0 0 0 0 0 0 0 0 0 0 -4 -12 -4 0 0
-18 -11 -10 -11 -7 -10 -13 -19 -10 -12 -7 -7 -8 -6 -6 -9 -2 0 0 0 0 0 0 0 0 0 0 0 0 0 0 0 0 0 0 0 0 0 -43 -2 -1 -1 0
-36 -29 -31 -18 -11 -10 -11 -13 -12 -19 -16 -10 -21 -15 -13 -13 -11 -6 -14 0 0 0 0 0 0 0 0 0 0 0 0 0 0 0 0 0 0 0 -61 -6 -1 -11 0
-25 -32 -34 -29 -24 -16 -12 -13 -16 -20 -21 -17 -14 -21 -25 -22 -36 -21 -21 -12 -15 0 0 0 0 0 0 0 0 0 0 0 0 0 0 0 0 0 0 -35 0 -25 0
-17 -17 -24 -23 -17 -23 -9 -18 -9 -11 -35 -28 -16 -19 -14 0 -1 -12 -34 0 -16 0 0 0 0 0 0 0 0 0 0 0 0 0 0 0 0 0 0 0 -26 0 -37
-12 -7 -16 -20 -26 -8 -21 -17 -19 -7 -11 -13 -6 -14 -3 -1 0 0 0 0 0 -13 0 0 0 0 0 0 0 0 0 0 0 0 0 0 -1 0 0 0 -11 0 -28
0 0 0 0 0 0 0 0 0 -20 -5 -12 -12 -4 0 -1 -4 -4 -10 0 0 0 0 -9 -5 0 0 0 0 0 0 0 0 0 0 -1 -1 0 0 0 0 -5 0
0 0 0 0 0 0 0 0 0 0 -20 -4 -8 -9 -14 -10 -2 -2 -3 -9 -12 -12 -8 -16 -8 0 0 0 0 0 0 0 0 0 0 0 0 0 0 0 0 0 0
0 0 0 0 0 0 0 0 0 0 -20 -17 -8 -4 -6 -11 -7 -1 -1 -6 -8 -15 -10 -16 -12 0 0 0 0 0 0 0 0 0 0 0 0 0 0 0 0 -15 -6
0 0 0 0 0 0 0 0 0 0 0 0 -44 -22 -3 -1 -3 -6 0 0 0 -3 -14 -15 0 0 0 0 0 0 0 0 0 0 0 0 0 0 0 -1 0 0 -30
0 0 0 0 0 0 0 0 0 -1 -1 0 0 0 -30 -4 -7 -2 -2 0 0 -1 -6 -4 -6 0 0 0 0 0 0 0 0 0 0 0 0 0 0 -1 0 0 0
-1 -4 -1 0 0 -2 0 0 0 0 0 -1 0 0 0 -11 -1 -2 -1 0 0 0 -2 0 -1 0 0 0 0 0 0 0 0 0 0 0 0 0 0 -1 0 0 0
-3 -1 -5 -3 0 -1 -1 -1 0 -1 -1 -1 -3 0 0 0 -1 0 -2 -2 -1 0 -3 -2 0 -8 0 0 0 0 0 0 0 0 0 0 0 0 0 0 0 0 0
-1 -2 -4 -2 0 0 0 -1 0 0 0 0 0 0 0 0 0 -1 0 -3 -3 -3 0 -1 -24 -7 -3 0 0 0 0 0 0 0 0 0 0 0 0 0 0 0 0
-7 -5 -2 -1 -2 -2 -1 0 0 0 0 0 0 0 -1 0 0 -4 0 -3 -9 -2 0 0 0 0 0 0 -9 -23 -14 0 0 0 0 0 0 0 0 0 0 0 0
-2 -1 -2 -2 0 -2 -4 -2 -1 0 0 0 0 -1 0 -1 0 0 -3 -1 -2 0 -1 0 0 0 0 -2 -17 -24 -18 0 0 0 0 0 0 0 0 0 0 0 0
-2 -7 0 -1 -1 0 -8 -7 -1 -1 0 -1 -1 0 0 -1 0 0 -1 -3 -1 0 0 0 0 0 0 -6 -8 -16 -8 -9 -10 -9 0 0 0 0 0 0 0 0 0
-6 -3 -9 -5 -2 0 -2 -2 0 -2 -1 -1 0 0 0 0 -1 -1 0 0 -1 -2 0 -4 0 0 0 -1 -7 -11 -12 -7 -8 0 0 0 0 0 0 0 0 0 0
-2 0 0 -1 -3 -3 -1 -1 -1 0 0 0 0 0 0 0 -1 -1 0 -3 -2 -2 0 -1 0 0 -6 -2 -6 -17 -16 -9 -11 0 0 0 0 0 0 0 0 0 0
-1 0 0 -1 -1 -3 0 0 0 0 -1 0 0 0 -1 0 -2 0 0 0 0 -6 -1 -1 0 0 0 0 -10 -23 -13 -12 -5 -7 -20 0 0 0 0 0 0 0 0
0 0 -1 0 0 -2 0 0 0 0 0 0 0 0 0 -1 0 0 0 0 0 0 0 0 0 -1 -16 0 -9 -22 -9 -6 -11 -13 -6 -4 -22 -4 -22 0 0 0 0
-9 0 -2 -2 -1 0 0 0 0 0 0 0 0 0 0 0 0 0 0 0 0 0 0 0 -4 0 0 0 -8 -25 -10 -14 -12 -9 -13 -3 -22 -12 -24 0 0 0 0
0 0 0 -1 0 0 0 0 0 -1 0 0 0 0 0 0 -2 0 -6 -1 0 0 0 0 0 0 0 0 -8 -16 -4 -11 -16 -5 -11 -12 -20 -48 -41 0 0 0 0
-1 0 -3 -2 -1 0 0 0 0 0 0 0 0 0 0 0 0 0 0 -3 0 0 -2 -3 0 0 0 0 0 -28 -17 -5 -8 -6 -19 -5 0 0 0 0 0 -2 0
Wind_Speed
12 18 19 22 22 18 17 20 22 19 19 19 20 20 20 20 21 22 17 18 19 20 21 22 22 22 22 21 21 21 21 22 21 20 20 19 18 19 14 9 10 10 8
14 25 22 20 21 22 23 19 18 20 19 20 19 19 22 23 20 20 20 19 19 20 21 22 22 22 22 22 22 22 22 22 22 22 21 21 21 20 19 18 13 11 6
15 18 26 29 27 27 27 24 21 23 25 25 22 20 19 21 23 23 21 22 21 20 21 21 22 22 23 23 22 22 23 23 23 23 23 22 21 22 23 7 12 9 7
16 22 23 24 26 27 28 28 27 27 27 26 27 25 23 21 22 21 20 23 24 22 21 22 22 21 22 23 23 23 23 23 24 24 23 23 23 23 22 8 17 14 7
15 19 23 23 27 28 28 29 28 27 32 29 29 29 29 29 29 27 25 24 24 26 23 21 20 21 22 23 24 24 24 24 24 24 24 23 23 23 23 20 26 4 6
14 18 20 24 24 26 29 27 29 28 29 32 31 31 30 28 30 31 32 30 25 25 26 22 21 20 22 23 24 25 25 24 24 24 24 24 23 23 24 23 18 9 4
23 26 29 30 35 34 31 28 33 32 28 27 32 32 32 34 34 35 36 34 30 27 24 24 24 24 22 20 23 24 26 25 25 25 25 25 24 24 24 22 18 11 8
26 24 25 28 25 26 25 27 27 33 33 29 31 33 39 39 37 33 32 31 34 32 29 24 24 26 25 19 22 24 24 25 25 25 25 26 24 24 24 24 24 19 13
33 34 33 33 33 34 36 35 36 36 32 32 29 30 33 34 30 28 29 27 29 33 34 30 26 25 26 27 24 24 24 25 26 26 26 28 26 25 25 25 24 24 15
37 36 37 37 37 37 39 40 38 39 40 40 35 34 36 34 34 36 31 28 26 29 30 30 32 29 28 28 28 24 25 26 25 26 27 29 28 27 26 27 26 26 23
37 38 37 40 40 38 38 40 40 40 40 41 41 40 39 38 36 36 37 34 29 26 23 25 27 27 30 30 30 31 26 25 26 26 27 29 30 29 28 29 27 26 27
34 36 38 38 38 39 40 41 41 40 41 40 40 42 40 39 40 36 36 36 34 25 25 23 26 27 29 30 29 30 29 25 26 28 29 29 29 29 28 27 26 27 29
36 37 38 40 39 39 40 42 43 44 42 42 42 42 42 41 39 38 36 34 33 28 27 24 22 22 24 27 29 27 26 24 26 28 29 29 29 29 29 27 27 27 27
34 34 33 33 36 35 36 36 39 42 42 42 41 43 43 43 39 41 36 34 36 34 33 28 26 23 24 23 26 25 25 24 26 29 29 28 28 28 27 27 27 26 26
29 30 32 32 32 32 31 30 31 39 41 42 42 41 45 44 44 39 36 33 31 34 34 31 25 21 22 26 25 24 24 26 26 27 28 29 27 27 26 26 27 27 26
28 29 29 29 30 27 26 27 26 32 36 39 41 40 40 42 42 41 36 35 33 32 33 28 26 23 22 24 27 24 25 26 28 27 26 25 26 27 27 26 26 26 26
28 28 29 30 28 26 25 25 23 30 32 34 37 40 40 38 42 40 35 35 32 31 29 29 27 27 29 24 27 25 23 25 27 27 26 27 28 29 28 27 27 27 26
27 28 30 30 30 28 23 20 20 25 33 36 38 38 38 36 39 39 37 34 31 31 28 32 32 29 28 22 22 24 24 28 27 27 26 27 28 29 29 28 28 28 26
28 28 31 30 29 27 25 21 18 21 28 34 35 37 36 36 37 39 32 33 30 29 29 30 31 28 27 27 21 25 28 30 29 23 22 23 26 27 27 28 28 27 27
28 28 27 24 23 22 22 19 18 24 24 27 33 34 36 35 36 38 38 30 31 30 29 28 28 31 28 29 23 26 28 29 26 20 20 22 23 25 27 28 28 27 27
27 24 23 22 20 19 20 19 17 20 25 31 31 32 34 34 34 35 36 37 33 30 28 27 25 31 33 26 24 24 27 26 25 20 19 21 22 24 27 29 29 29 28
26 22 22 22 22 22 19 18 11 5 9 11 29 29 31 31 31 31 36 34 31 31 28 27 26 31 31 27 24 24 26 25 25 20 17 19 18 23 26 29 31 30 29
25 22 21 20 21 21 18 15 7 14 13 10 27 25 28 26 28 29 35 35 34 30 26 26 24 31 30 24 24 24 26 23 21 21 20 20 19 23 24 21 26 30 27
23 21 20 21 19 20 17 15 7 15 11 13 25 28 28 27 27 27 31 36 37 33 30 26 25 29 27 27 25 26 27 24 26 22 17 21 23 24 25 23 22 23 25
21 20 19 19 20 17 15 11 5 9 13 16 22 26 29 27 27 29 31 35 37 34 31 24 24 29 25 23 22 24 25 21 22 21 21 24 24 26 27 28 28 27 27
24 22 21 21 19 18 13 7 6 8 14 16 21 24 27 26 30 30 32 33 38 36 32 27 30 30 26 20 21 24 25 24 24 23 23 22 23 24 29 28 30 30 32
Wind_Direction
337 318 313 306 303 307 304 302 300 302 305 304 306 306 307 307 308 307 311 312 314 311 307 306 306 304 303 302 300 296 293 287 287 288 289 288 288 276 280 289 285 285 296
326 308 310 307 305 303 302 304 303 302 301 301 299 300 300 301 304 304 308 307 309 310 305 303 303 304 300 299 298 294 290 288 283 282 283 285 283 281 275 264 270 272 289
315 313 301 298 300 299 300 302 299 300 297 298 297 298 297 298 297 299 301 302 302 303 301 301 299 299 298 296 294 291 288 285 283 281 279 280 281 278 269 293 253 257 271
306 304 306 304 302 299 297 296 293 295 290 289 291 293 295 292 294 293 296 298 298 298 296 296 295 296 295 292 290 288 286 285 280 279 278 275 277 275 276 261 251 251 264
304 302 300 302 300 299 297 296 292 292 291 287 289 289 291 289 290 292 290 290 290 291 294 294 294 293 292 290 287 285 284 283 280 276 275 274 273 272 266 258 205 230 263
303 302 295 301 298 296 294 292 290 291 290 290 288 289 287 286 287 284 284 288 284 286 286 287 290 294 291 288 286 283 281 281 279 275 273 272 270 270 265 262 261 267 261
315 313 305 305 298 300 295 297 295 293 290 287 287 287 286 286 283 283 280 282 280 279 280 281 283 287 291 287 284 282 278 277 276 275 271 269 269 267 267 268 261 258 257
321 314 309 305 299 299 295 297 292 294 290 286 284 286 286 286 282 278 276 276 275 276 275 275 279 281 284 286 283 280 277 275 274 272 270 266 269 266 265 264 264 258 260
320 316 316 312 306 302 301 298 294 294 288 286 281 282 289 286 288 282 276 274 273 271 271 271 273 276 279 278 281 278 273 274 273 270 267 263 266 266 264 264 263 261 250
317 315 312 309 304 302 298 296 295 289 289 285 283 276 276 278 281 284 284 273 271 272 269 269 270 273 273 275 274 274 271 269 270 268 266 262 262 263 264 263 261 260 256
318 316 316 311 309 306 302 298 295 291 287 285 283 280 275 275 271 271 276 282 273 268 268 268 268 272 268 269 272 268 268 267 265 266 266 263 259 260 262 262 260 259 256
325 321 319 317 313 308 304 300 295 290 286 284 283 280 275 271 270 268 269 270 275 267 266 268 268 269 269 268 269 268 264 264 264 264 263 261 260 258 260 262 261 260 261
325 322 319 315 314 312 308 301 294 289 284 280 281 278 275 272 268 267 265 260 263 266 267 265 267 267 268 269 268 266 264 263 264 264 262 260 261 259 258 259 259 261 260
329 327 325 324 321 316 312 307 300 289 285 281 279 274 273 267 270 263 260 259 254 262 261 265 266 267 266 271 270 266 263 264 265 263 261 260 261 260 258 258 258 259 258
334 333 332 330 329 323 322 319 305 292 285 281 279 275 269 266 263 265 258 254 250 254 257 259 267 263 267 266 270 268 266 263 263 264 260 258 260 260 257 259 258 257 259
339 335 334 333 333 331 327 325 319 304 292 282 278 273 272 263 262 261 254 251 252 254 255 257 266 275 269 267 266 266 265 265 262 261 261 260 258 259 256 256 258 256 258
342 337 336 337 334 334 333 328 321 306 297 289 278 274 268 265 255 257 254 248 247 248 250 255 266 272 271 268 265 261 264 265 260 258 258 256 255 253 254 252 256 256 258
350 343 340 339 338 336 333 331 328 316 296 287 279 272 267 264 253 252 252 243 240 247 253 256 262 264 265 266 263 257 262 259 256 254 256 255 254 253 252 250 253 254 256
355 350 341 339 339 338 335 334 331 322 308 290 280 267 264 260 251 245 252 239 241 247 255 259 258 256 262 260 259 255 259 257 257 258 256 256 253 253 251 249 251 254 253
357 351 347 346 346 346 344 340 335 322 316 304 276 265 258 256 249 244 243 248 242 246 251 253 255 245 254 255 259 254 255 256 263 263 254 257 255 254 250 250 252 253 252
359 358 356 353 353 353 352 351 342 328 316 290 274 264 255 251 248 244 240 242 242 243 244 245 248 238 246 254 253 254 253 256 258 260 259 259 257 255 253 251 251 251 250
5 4 2 3 1 0 1 359 353 254 215 199 269 261 251 247 246 244 236 239 239 238 238 241 243 235 242 250 254 250 251 253 253 260 259 262 258 255 253 249 248 248 248
10 9 9 9 10 11 12 16 24 238 200 163 245 257 245 247 242 241 233 233 233 233 238 241 235 234 243 250 248 244 247 254 261 261 261 266 258 255 250 251 251 245 245
16 18 18 19 20 23 29 35 55 253 122 145 229 234 235 240 240 238 230 226 223 227 233 238 234 240 251 250 244 240 242 252 250 261 268 262 254 247 247 251 252 247 246
19 20 24 29 32 38 48 67 126 203 151 166 201 214 217 229 231 226 224 220 218 223 231 234 231 240 243 251 242 237 241 249 252 259 263 252 248 245 246 248 247 247 247
27 33 38 43 46 51 63 102 157 195 151 156 184 199 207 218 214 216 217 218 216 219 226 231 230 233 237 250 241 236 241 247 252 251 256 253 247 247 246 250 248 248 246